TimePST,TemperatureF,Dew PointF,Humidity,Sea Level PressureIn,VisibilityMPH,Wind Direction,Wind SpeedMPH,Gust SpeedMPH,PrecipitationIn,Events,Conditions,WindDirDegrees,DateUTC
12:15 AM,44.6,39.2,81,30.18,10.0,WNW,3.5,-,N/A,,Clear,300,2012-11-11 08:15:00
12:35 AM,42.8,39.2,87,30.19,10.0,NW,3.5,-,N/A,,Clear,310,2012-11-11 08:35:00
12:55 AM,42.8,39.2,87,30.19,10.0,NW,5.8,-,N/A,,Clear,320,2012-11-11 08:55:00
1:15 AM,42.8,39.2,87,30.19,10.0,Calm,Calm,-,N/A,,Clear,0,2012-11-11 09:15:00
1:35 AM,42.8,39.2,87,30.19,10.0,NW,3.5,-,N/A,,Clear,310,2012-11-11 09:35:00
1:55 AM,42.8,39.2,87,30.19,10.0,NNW,4.6,-,N/A,,Clear,330,2012-11-11 09:55:00
2:15 AM,42.8,39.2,87,30.19,10.0,NNW,3.5,-,N/A,,Clear,330,2012-11-11 10:15:00
2:35 AM,41.0,39.2,93,30.19,10.0,NW,5.8,-,N/A,,Clear,320,2012-11-11 10:35:00
2:55 AM,41.0,39.2,93,30.20,10.0,Calm,Calm,-,N/A,,Clear,0,2012-11-11 10:55:00
3:35 AM,39.2,39.2,100,30.20,10.0,WNW,3.5,-,N/A,,Clear,290,2012-11-11 11:35:00
3:55 AM,39.2,39.2,100,30.21,10.0,NNE,3.5,-,N/A,,Clear,30,2012-11-11 11:55:00
4:15 AM,39.2,39.2,100,30.21,10.0,Calm,Calm,-,N/A,,Clear,0,2012-11-11 12:15:00
4:35 AM,39.2,37.4,93,30.22,10.0,WNW,3.5,-,N/A,,Clear,290,2012-11-11 12:35:00
4:55 AM,39.2,37.4,93,30.22,10.0,NW,3.5,-,N/A,,Clear,320,2012-11-11 12:55:00
5:15 AM,37.4,37.4,100,30.22,10.0,Calm,Calm,-,N/A,,Clear,0,2012-11-11 13:15:00
6:47 AM,37.4,37.4,100,30.24,25.0,Calm,Calm,-,N/A,,Clear,0,2012-11-11 14:47:00
10:47 AM,62.6,26.6,26,30.27,25.0,Calm,Calm,-,N/A,,Clear,0,2012-11-11 18:47:00
11:47 AM,64.4,23.0,21,30.24,25.0,Calm,Calm,-,N/A,,Clear,0,2012-11-11 19:47:00
12:47 PM,69.8,23.0,17,30.21,25.0,WNW,4.6,-,N/A,,Clear,300,2012-11-11 20:47:00
1:47 PM,71.6,17.6,13,30.19,25.0,NNW,11.5,-,N/A,,Clear,340,2012-11-11 21:47:00
4:47 PM,60.8,35.6,39,30.22,12.0,West,11.5,-,N/A,,Clear,280,2012-11-12 00:47:00
8:15 PM,48.2,37.4,66,30.29,10.0,West,3.5,-,N/A,,Clear,270,2012-11-12 04:15:00
8:35 PM,46.4,37.4,71,30.30,10.0,WNW,3.5,-,N/A,,Clear,300,2012-11-12 04:35:00
8:55 PM,46.4,37.4,71,30.30,10.0,NW,3.5,-,N/A,,Clear,310,2012-11-12 04:55:00
9:15 PM,44.6,35.6,71,30.30,10.0,WNW,3.5,-,N/A,,Clear,300,2012-11-12 05:15:00
9:35 PM,44.6,35.6,71,30.29,10.0,WNW,4.6,-,N/A,,Clear,300,2012-11-12 05:35:00
9:55 PM,44.6,35.6,71,30.28,10.0,WNW,4.6,-,N/A,,Clear,300,2012-11-12 05:55:00
10:15 PM,42.8,35.6,76,30.27,10.0,NW,3.5,-,N/A,,Clear,310,2012-11-12 06:15:00
10:55 PM,42.8,35.6,76,30.27,10.0,Calm,Calm,-,N/A,,Clear,0,2012-11-12 06:55:00
11:15 PM,42.8,35.6,76,30.26,10.0,Calm,Calm,-,N/A,,Clear,0,2012-11-12 07:15:00
11:55 PM,39.2,35.6,87,30.24,10.0,WNW,3.5,-,N/A,,Clear,300,2012-11-12 07:55:00